This is the latest recevied weather packets stored in our database for station/object IK2ILW-6. If no packets are shown the sender has not sent any weather packets the latest 10 day(s).
| Time | Temp. | Humidity | Pressure | Rain* | Wind** | Luminosity | Snow |
|---|---|---|---|---|---|---|---|
| 1777361183 | 3.89° C | 95% | 1018.6 hPa | 11.94 mm | - | 5 W/m² | - |
| 1777360887 | 4.44° C | 96% | 1018.6 hPa | 6.1 mm | - | 0 W/m² | - |
| 1777360593 | 5° C | 96% | 1018.5 hPa | 3.05 mm | - | 0 W/m² | - |
| 1777360297 | 5° C | 96% | 1018.6 hPa | 3.05 mm | - | 0 W/m² | - |
| 1777360002 | 5° C | 96% | 1018.5 hPa | 2.03 mm | - | 0 W/m² | - |
| 1777359687 | 5.56° C | 96% | 1018.4 hPa | 1.02 mm | - | 0 W/m² | - |
| 1777359392 | 5.56° C | 96% | 1018.1 hPa | 1.02 mm | - | 0 W/m² | - |
| 1777359096 | 5.56° C | 96% | 1018 hPa | 1.02 mm | - | 5 W/m² | - |
| 1777358785 | 5.56° C | 96% | 1017.9 hPa | 1.02 mm | - | 7 W/m² | - |
| 1777358490 | 5.56° C | 96% | 1017.9 hPa | 1.02 mm | - | 16 W/m² | - |
| 1777358194 | 5.56° C | 96% | 1017.9 hPa | 1.02 mm | - | 11 W/m² | - |
| 1777357898 | 5.56° C | 96% | 1018.1 hPa | 1.02 mm | - | 9 W/m² | - |
| 1777357583 | 5.56° C | 96% | 1018.1 hPa | 1.02 mm | - | 9 W/m² | - |
| 1777357288 | 5.56° C | 96% | 1018.1 hPa | 0 mm | - | 18 W/m² | - |
| 1777356993 | 5.56° C | 96% | 1017.9 hPa | 0 mm | - | 16 W/m² | - |
| 1777356697 | 6.11° C | 96% | 1017.9 hPa | 0 mm | - | 26 W/m² | - |
| 1777356401 | 6.11° C | 96% | 1017.9 hPa | 0 mm | - | 39 W/m² | - |
| 1777356085 | 6.11° C | 96% | 1017.9 hPa | 0 mm | - | 21 W/m² | - |
| 1777355790 | 6.11° C | 96% | 1017.9 hPa | 0 mm | - | 26 W/m² | - |
| 1777355498 | 6.11° C | 96% | 1018 hPa | 0 mm | - | 54 W/m² | - |
| 1777355182 | 6.11° C | 96% | 1018 hPa | 0 mm | - | 53 W/m² | - |
| 1777354889 | 6.11° C | 96% | 1018.1 hPa | 0 mm | - | 37 W/m² | - |
| 1777354591 | 6.11° C | 96% | 1018.1 hPa | 0 mm | - | 26 W/m² | - |
| 1777354296 | 6.11° C | 96% | 1018.2 hPa | 0 mm | - | 26 W/m² | - |
| 1777354001 | 6.11° C | 96% | 1018.2 hPa | 0 mm | - | 46 W/m² | - |
* Rain latest hour (hover to see other rain measurements)
** Current wind speed in m/s (hover to see current wind gust speed)